Regional Weather Roundup
Issued by NWS

Home | Current Version | Previous Version | Graphics & Text | Print | Product List | Glossary On
Versions: 1 2 3 4 5 6 7 8 9 10 11 12 13 14 15 16 17 18 19 20 21 22 23 24 25 26 27 28 29 30 31 32 33 34 35 36 37 38 39 40 41 42 43 44 45 46 47 48 49 50
000
ASUS43 KIND 231959
RWRIN

WEATHER ROUNDUP FOR INDIANA
NATIONAL WEATHER SERVICE INDIANAPOLIS IN
300 PM EST THU NOV 23 2017

NOTE: "FAIR" INDICATES FEW OR NO CLOUDS BELOW 12,000 FEET WITH NO
SIGNIFICANT WEATHER AND/OR OBSTRUCTIONS TO VISIBILITY.

* - STATION DOES NOT REPORT WEATHER SUCH AS PRECIPITATION OR FOG.

+ - STATION NOT QUALITY CONTROLLED BY THE NATIONAL WEATHER SERVICE.
    USE DATA WITH CAUTION...ESPECIALLY DEWPOINT AND RELATIVE
    HUMIDITY OBSERVATIONS.

INZ001>003-010>013-019-020-232100-
NORTHWEST INDIANA

CITY           SKY/WX    TMP DP  RH WIND       PRES   REMARKS
GARY /AIRPORT/ SUNNY     48  21  34 S12       29.93F
KNOX *+        SUNNY     43  27  52 SW13      29.95S
LA PORTE +     SUNNY     44  25  47 SW13G20   29.94F
MICHIGAN CITY+ SUNNY     45  25  45 SW12      29.94F
MONTICELLO +   SUNNY     44  22  41 S9        29.96F
RENSSELAER +   SUNNY     45  18  33 S14       29.96S

$$

LMZ046-743>745-232100-
SOUTHERN LAKE MICHIGAN

STATION/POSITION TIME  TEMP    WIND        PRES    WAVE
                       AIR SEA DIR/SP/G            HT
                 (UTC) (F)     (DEG/KT/KT) (MB)    (FT)
BURNS HARBOR     1940   45     230/ 10/ 15 1013.9F
MICHIGAN CITY    1930   43     210/ 13/ 15   N/A

$$

INZ004-005-014>016-021>024-232100-
NORTH CENTRAL INDIANA

CITY           SKY/WX    TMP DP  RH WIND       PRES   REMARKS
GOSHEN         SUNNY     42  21  43 SW14      29.96F
PERU/GRISSOM   SUNNY     44  24  44 SW10      29.97F
SOUTH BEND     SUNNY     43  24  47 SW15      29.94F
WARSAW +       SUNNY     43  21  42 SW7       29.96F

$$

INZ006>009-017-018-025>027-232100-
NORTHEAST INDIANA

CITY           SKY/WX    TMP DP  RH WIND       PRES   REMARKS
AUBURN +       SUNNY     41  23  48 S7        29.97F
FORT WAYNE     MOSUNNY   42  23  46 SW14      29.98F
KENDALLVILLE + MOSUNNY   40  23  49 S13       29.96F WCI  33

$$

INZ028-029-035-036-043>045-051>053-232100-
WEST CENTRAL INDIANA

CITY           SKY/WX    TMP DP  RH WIND       PRES   REMARKS
CRAWFORDSVL +  SUNNY     42  25  49 S10       29.98F
GREENCASTLE +  SUNNY     43  18  36 S6        30.00F
LAFAYETTE      SUNNY     44  23  43 SW7       29.97F
TERRE HAUTE    SUNNY     45  23  42 S12       30.00F

$$

INZ030>032-037>040-046>048-054>057-064-065-232100-
CENTRAL INDIANA

CITY           SKY/WX    TMP DP  RH WIND       PRES   REMARKS
COLUMBUS       MOSUNNY   45  21  39 S7        30.04F
FRANKFORT +    CLOUDY    47  25  42 SW10      29.99F
GREENWOOD *+   SUNNY     48  22  36 SW8       30.01F
INDIANAPOLIS   MOSUNNY   45  22  40 S12       30.00F
-EAGLE CREEK   SUNNY     45  17  32 S12       29.99F
KOKOMO +       SUNNY     44  21  40 S10       29.98F
MT COMFORT *+  SUNNY     45  27  49 S10       30.00F
SHELBYVILLE    SUNNY     45  25  45 S10       30.01F

$$

INZ033-034-041-042-049-050-058-059-232100-
EAST CENTRAL INDIANA

CITY           SKY/WX    TMP DP  RH WIND       PRES   REMARKS
MUNCIE         SUNNY     45  24  43 S9        29.99F
RICHMOND +     MOSUNNY   41  28  60 S9        30.02F

$$

INZ060-061-067>069-081>083-085>088-232100-
SOUTHWEST INDIANA

CITY           SKY/WX    TMP DP  RH WIND       PRES   REMARKS
EVANSVILLE     MOSUNNY   47  21  35 SW6       30.04F
HUNTINGBURG +  MOSUNNY   48  25  40 SW8       30.05F

$$

INZ062-063-066-070>080-084-089>092-232100-
SOUTH CENTRAL AND SOUTHEAST INDIANA

CITY           SKY/WX    TMP DP  RH WIND       PRES   REMARKS
BLOOMINGTON    SUNNY     45  20  36 SW8       30.02F
MADISON *+     SUNNY     46  23  39 S3        30.06F
SEYMOUR +      SUNNY     48  27  43 S7        30.04

$$




USA.gov is the U.S. government's official web portal to all federal, state and local government web resources and services.